Observations for Trim Patrick St
| Time | AQI | Temp °C | Hum % | Pres Pa | CO μg/m³ | H₂S μg/m³ | NO μg/m³ | NO₂ μg/m³ | O₃ μg/m³ | SO₂ μg/m³ | PM1 μg/m³ | PM2.5 μg/m³ | PM10 μg/m³ |
|---|---|---|---|---|---|---|---|---|---|---|---|---|---|
| Friday 28 August 2026 | |||||||||||||
| 02:43 | 3 | 16.7 | 88 | 38,460 | 0.15 | 1.24 | 1.57 | 12.83 | 41 | 0 | 13.14 | 18.36 | 20.2 |
| 02:42 | 3 | 16.7 | 88 | 38,460 | 0.16 | 1.13 | 1.55 | 12.93 | 36.18 | 0 | 11.43 | 16.32 | 17.96 |
| 02:41 | 3 | 16.7 | 88 | 38,460 | 0.13 | 1.29 | 1.49 | 12.94 | 38 | 0 | 11.43 | 17.68 | 19.45 |
| 02:40 | 3 | 16.7 | 88 | 38,460 | 0.15 | 0.69 | 1.55 | 12.28 | 37.4 | 0 | 10.57 | 15.64 | 17.2 |
| 02:39 | 3 | 16.6 | 88 | 38,460 | 0.15 | 1.18 | 1.6 | 11.94 | 38.74 | 0 | 10.57 | 15.64 | 17.2 |
| 02:38 | 3 | 16.7 | 88 | 38,460 | 0.13 | 1.94 | 1.29 | 14.09 | 34.17 | 0 | 11.43 | 17.01 | 18.71 |
| 02:37 | 3 | 16.6 | 88 | 38,460 | 0.15 | 0.95 | 1.5 | 13.58 | 33.33 | 0 | 11.43 | 18.37 | 20.21 |
| 02:36 | 3 | 16.6 | 88 | 38,460 | 0.15 | 0.09 | 1.73 | 11.94 | 38.87 | 0 | 11.43 | 14.27 | 15.7 |
| 02:33 | 3 | 16.7 | 88 | 38,460 | 0.14 | 1.78 | 1.54 | 13.73 | 34.17 | 0 | 12.29 | 19.06 | 20.96 |
| 02:32 | 3 | 16.7 | 88 | 38,460 | 0.13 | 1.52 | 1.39 | 12.6 | 36.11 | 0 | 12.29 | 17.69 | 19.46 |
| 02:31 | 3 | 16.7 | 88 | 38,460 | 0.14 | 2.52 | 1.25 | 13.72 | 34.62 | 0 | 12.29 | 19.07 | 20.97 |
| 02:30 | 3 | 16.7 | 88 | 38,460 | 0.13 | 2.96 | 1.51 | 14.4 | 33.55 | 0 | 12.29 | 17.7 | 19.47 |
| 02:28 | 3 | 16.7 | 88 | 38,460 | 0.14 | 2.46 | 1.51 | 13.86 | 33.51 | 0 | 10.57 | 17.01 | 18.71 |
| 02:27 | 3 | 16.7 | 88 | 38,460 | 0.14 | 2.07 | 1.56 | 15.74 | 28.12 | 0 | 11.43 | 17.01 | 18.71 |
| 02:26 | 3 | 16.6 | 88 | 38,460 | 0.16 | 0.87 | 1.73 | 12.16 | 36.55 | 0 | 11.43 | 18.37 | 20.21 |
| 02:25 | 3 | 16.7 | 88 | 38,460 | 0.14 | 1.94 | 1.61 | 12.5 | 36.5 | 0 | 12.29 | 19.06 | 20.96 |
| 02:24 | 3 | 16.7 | 88 | 38,460 | 0.14 | 2.8 | 1.71 | 14.51 | 30.56 | 0 | 12.29 | 19.75 | 21.73 |
| 02:22 | 3 | 16.7 | 88 | 38,460 | 0.15 | 0.87 | 2.55 | 12.61 | 35.43 | 0 | 9.71 | 14.96 | 16.45 |
| 02:20 | 3 | 16.7 | 88 | 38,460 | 0.15 | 1.1 | 1.94 | 12.5 | 36.23 | 0 | 11.43 | 17.69 | 19.46 |
| 02:18 | 3 | 16.7 | 88 | 38,460 | 0.14 | 0.56 | 1.5 | 12.27 | 36 | 0 | 11.43 | 17.02 | 18.72 |